Flag Weather past 2 weeks in Grudziądz, Poland

Now
33 °F

Fog.


Feels Like: 33 °F
Forecast: 32 / 39 °F
Wind: 2 mph from Southeast

Location: Torun

Current Time: Nov 23, 2014 at 7:23:43 AM

Latest Report: Nov 23, 2014 at 6:00 AM


Visibility: 1 mi

Pressure: 30.42 "Hg

Humidity: 95%

Dew point: 32 °F

Location of GrudziądzLocation

Historic Weather in Grudziądz — Graph

°F

Grudziądz temperature yesterday

Maximum temperature yesterday: 40 °F (at 2:00 PM)
Minimum temperature yesterday: 38 °F (at 12:00 AM)
Average temperature yesterday: 39 °F

Past Weeks' High & Low Weather Summary

 TemperatureHumidityPressure
High55 °F (Nov 10, 2:00 PM)100% (Nov 8, 8:00 PM)30.42 "Hg (Nov 8, 8:00 PM)
Low32 °F (Nov 21, 2:00 AM)82% (Nov 14, 2:00 PM)29.84 "Hg (Nov 16, 2:00 PM)
Average42 °F93%30.08 "Hg
* Reported Nov 8 6:00 AM — Nov 23 6:00 AM, Grudziądz, Weather by CustomWeather, © 2014

Note: Actual official high and low records may vary slightly from our data, if they occured in-between our weather recording intervals... More about our weather records

Advertising

Grudziądz weather history for previous 24 hours

 ConditionsComfort  
Time TempWeatherWind HumidityBarometerVisibility
6:00 AM
Nov 23
33 °FFog.2 mph95%30.42 "Hg1 mi
5:00 AM35 °FFog.3 mph94%30.42 "Hg2 mi
4:00 AM35 °FFog.2 mph94%30.42 "Hg2 mi
3:00 AM36 °FFog.2 mph92%30.42 "Hg2 mi
2:00 AM37 °FFog.2 mph92%30.42 "Hg2 mi
1:00 AM38 °FFog.2 mph92%30.41 "Hg2 mi
12:00 AM38 °FFog.2 mph93%30.40 "Hg2 mi
11:00 PM
Nov 22
39 °FFog.2 mph93%30.41 "Hg2 mi
10:00 PM39 °FFog.1 mph93%30.41 "Hg2 mi
9:00 PM39 °FFog.1 mph93%30.41 "Hg2 mi
8:00 PM39 °FFog.2 mph94%30.38 "Hg2 mi
7:00 PM40 °FFog.1 mph94%30.38 "Hg1 mi
6:00 PM40 °FFog.1 mph93%30.38 "Hg1 mi
5:00 PM40 °FFog.1 mph93%30.38 "Hg2 mi
4:00 PM40 °FFog.1 mph92%30.37 "Hg2 mi
3:00 PM40 °FFog.1 mph92%30.36 "Hg2 mi
2:00 PM40 °FFog.1 mph92%30.37 "Hg2 mi
1:00 PM40 °FFog.1 mph94%30.36 "Hg2 mi
12:00 PM40 °FFog.2 mph96%30.37 "Hg1 mi
11:00 AM39 °FFog.1 mph96%30.36 "Hg1 mi
10:00 AM39 °FFog.2 mph97%30.36 "Hg1 mi
9:00 AM38 °FFog.No wind97%30.35 "Hg1 mi
8:00 AM38 °FFog.No wind97%30.34 "Hg1 mi
7:00 AM38 °FFog.1 mph97%30.33 "Hg1 mi
Weather by CustomWeather, © 2014

See weather overviewHow to use our weather pages